Regional Weather Roundup
Issued by NWS

Home | Current Version | Previous Version | Text Only | Print | Product List | Glossary On
Versions: 1 2 3 4 5 6 7 8 9 10 11 12 13 14 15 16 17 18 19 20 21 22 23 24 25 26 27 28 29 30 31 32 33 34 35 36 37 38 39 40 41 42 43 44 45 46 47 48 49 50
000
ASUS43 KTOP 011959
RWRKS

WEATHER ROUNDUP FOR KANSAS
NATIONAL WEATHER SERVICE GOODLAND KS
300 PM CDT WED APR 01 2015

NOTE:  "FAIR" INDICATES FEW OR NO CLOUDS BELOW 12,000 FEET WITH NO
SIGNIFICANT WEATHER AND/OR OBSTRUCTIONS TO VISIBILITY.

KSZ001>006-013>018-027>032-041>047-012100-
NORTHWEST KANSAS

CITY           SKY/WX    TMP DP  RH WIND       PRES   REMARKS
GOODLAND       MOSUNNY   82  23  11 N13       29.62F
HAYS           SUNNY     82  50  32 S22G29    29.62F
HILL CITY      SUNNY     85  43  22 S20G32    29.59F
RUSSELL        SUNNY     86  47  25 S25G36    29.60F
$$

KSZ061>065-074>080-084>089-012100-
SOUTHWEST KANSAS

CITY           SKY/WX    TMP DP  RH WIND       PRES   REMARKS
DODGE CITY     SUNNY     85  43  22 S22G30    29.64F
ELKHART          N/A     83  29  14 SW14        N/A
GARDEN CITY    SUNNY     83  36  18 S14       29.62F
GREAT BEND     SUNNY     84  52  32 S25G31    29.63F
LIBERAL        SUNNY     88  37  16 SW13G22   29.66F
$$

KSZ066>073-081>083-090>101-012100-
SOUTHEAST KANSAS

CITY           SKY/WX    TMP DP  RH WIND       PRES   REMARKS
CHANUTE        SUNNY     75  58  55 SE15G25   29.80F
COFFEYVILLE    PTSUNNY   73  60  63 S16       29.80F
HUTCHINSON     SUNNY     84  54  35 SE25G33   29.67F
MEDICINE LODGE   N/A     85  52  32 S18G31    29.65F
NEWTON         SUNNY     81  52  36 S21G28    29.73F
PARSONS        PTSUNNY   76  60  57 S14G23    29.81F
WICHITA INTL   MOSUNNY   85  57  38 S22G32    29.68F
WICHITA JABRA  SUNNY     83  57  41 S20G31    29.70F
WINFIELD       MOSUNNY   84  56  38 S22G35    29.72F
$$

KSZ007>012-019>026-033>040-048>060-102>105-012100-
NORTHEAST KANSAS

CITY           SKY/WX    TMP DP  RH WIND       PRES   REMARKS
CONCORDIA      SUNNY     82  48  30 S23G36    29.63F
EMPORIA        SUNNY     80  51  36 S20G33    29.73F
LAWRENCE       MOSUNNY   81  53  37 S21G32    29.75F
MANHATTAN      SUNNY     84  50  30 S20G30    29.68F
OLATHE IND     PTSUNNY   78  56  46 S21G29    29.78F
OLATHE EXE     PTSUNNY   78  56  46 S22G32    29.78F
SALINA         SUNNY     83  51  33 S22G32    29.66F
TOPEKA BILLARD MOSUNNY   80  52  37 S18G31    29.73F
TOPEKA FORBES  MOSUNNY   83  52  34 S23G31    29.73F
$$


USA.gov is the U.S. government's official web portal to all federal, state and local government web resources and services.